Weather History for KUAO - January, 2013

Change the Weather History Date:

Wednesday, January 23, 2013

  Actual Average Record
Temperature  
Mean Temperature 34 °F -  
Max Temperature 37 °F - 59 °F (2003)
Min Temperature 29 °F - 27 °F (2008)
Degree Days  
Heating Degree Days 32    
Month to date heating degree days 694  
Since 1 July heating degree days 2353  
Cooling Degree Days 0    
Month to date cooling degree days 0  
Year to date cooling degree days 0  
Moisture  
Dew Point 31 °F    
Average Humidity 80    
Maximum Humidity 100    
Minimum Humidity 59    
Precipitation  
Precipitation 0.21 in - 0.75 in (1965)
Month to date precipitation 0.75  
Year to date precipitation 0.75  
Sea Level Pressure  
Sea Level Pressure 30.06 in    
Wind  
Wind Speed 0 mph (SSE)    
Max Wind Speed 8 mph    
Max Gust Speed 10 mph    
Visibility 5 miles    
Events Rain    
T = Trace of Precipitation, MM = Missing Value Source: NWS Daily Summary

Daily Weather History Graph

Daily Weather History Graph

Search for Another Location

Airport or City:

Trip Planner

Search our weather history database for the weather conditions in past years. The results will help you decide how hot, cold, wet, or windy it might be!

Date:

Astronomy

Jan. 23, 2013 Rise Set
Actual Time 7:40 AM PST 5:06 PM PST
Civil Twilight 7:08 AM PST 5:38 PM PST
Nautical Twilight 6:32 AM PST 6:14 PM PST
Astronomical Twilight 5:57 AM PST 6:49 PM PST
Moon 2:18 PM PST (1/23) 4:58 AM PST (1/23)
Length of Visible Light 10h 30m
Length of Day
9h 25m
Waxing Gibbous, 90% of the Moon is Illuminated
Jan 23
Waxing Gibbous
Jan 26
Full
Feb 3
Last Quarter
Feb 9
New
Feb 17
First Quarter

Hourly Weather History & Observations

Time (PST) Temp. Windchill Dew Point Humidity Pressure Visibility Wind Dir Wind Speed Gust Speed Precip Events Conditions
12:53 AM 30.0 °F - 28.0 °F 92% 29.99 in 6.0 mi Calm Calm - N/A   Clear
1:53 AM 30.0 °F - 28.9 °F 96% 29.99 in 6.0 mi Calm Calm - N/A   Partly Cloudy
2:53 AM 30.9 °F - 28.9 °F 92% 29.99 in 7.0 mi Calm Calm - N/A   Scattered Clouds
3:53 AM 30.9 °F - 28.9 °F 92% 29.95 in 6.0 mi Calm Calm - N/A   Overcast
4:53 AM 32.0 °F - 28.9 °F 88% 29.95 in 8.0 mi Calm Calm - N/A   Overcast
5:53 AM 33.1 °F 30.0 °F 26.1 °F 75% 29.95 in 10.0 mi NNW 3.5 mph - N/A   Mostly Cloudy
6:53 AM 32.0 °F 28.7 °F 28.0 °F 85% 29.95 in 10.0 mi SE 3.5 mph - N/A   Overcast
7:53 AM 32.0 °F - 30.0 °F 92% 29.93 in 8.0 mi Calm Calm - N/A   Overcast
8:53 AM 33.1 °F - 28.9 °F 85% 29.94 in 8.0 mi Calm Calm - N/A   Overcast
9:53 AM 35.1 °F - 24.1 °F 64% 29.96 in 10.0 mi Calm Calm - N/A   Overcast
10:53 AM 37.0 °F - 25.0 °F 62% 29.98 in 10.0 mi Calm Calm - N/A   Overcast
11:53 AM 35.1 °F 32.2 °F 28.9 °F 78% 29.96 in 7.0 mi ESE 3.5 mph - 0.00 in Rain Light Rain
12:53 PM 34.0 °F - 32.0 °F 92% 29.96 in 4.0 mi Calm Calm - 0.04 in Rain Light Rain
1:53 PM 34.0 °F - 33.1 °F 96% 29.97 in 3.0 mi Calm Calm - 0.05 in Rain Light Rain
2:22 PM 33.8 °F - 33.8 °F 100% 29.98 in 3.0 mi Calm Calm - 0.03 in Rain Light Rain
2:28 PM 33.8 °F - 33.8 °F 100% 29.97 in 2.5 mi Calm Calm - 0.03 in Rain Rain
2:36 PM 33.8 °F - 33.8 °F 100% 29.98 in 3.0 mi Calm Calm - 0.04 in Rain Light Rain
2:53 PM 34.0 °F - 32.0 °F 92% 30.00 in 3.0 mi Calm Calm - 0.05 in Rain Light Rain
3:10 PM 33.8 °F - 33.8 °F 100% 30.01 in 2.5 mi Calm Calm - 0.02 in Rain Light Rain
3:29 PM 33.8 °F 30.8 °F 33.8 °F 100% 30.03 in 2.5 mi SSW 3.5 mph - 0.03 in Rain Light Rain
3:53 PM 34.0 °F - 34.0 °F 100% 30.04 in 2.5 mi Calm Calm - 0.05 in Rain Light Rain
4:02 PM 33.8 °F 29.6 °F 33.8 °F 100% 30.03 in 3.0 mi SSE 4.6 mph - 0.01 in Rain Light Rain
4:19 PM 33.8 °F - 33.8 °F 100% 30.04 in 3.0 mi Calm Calm - 0.01 in Rain Light Rain
4:53 PM 34.0 °F - 33.1 °F 96% 30.05 in 3.0 mi Calm Calm - 0.02 in Rain Light Rain
5:53 PM 34.0 °F - 33.1 °F 96% 30.09 in 5.0 mi Calm Calm - 0.00 in   Overcast
6:21 PM 33.8 °F - 33.8 °F 100% 30.10 in 6.0 mi Calm Calm - 0.00 in   Overcast
6:53 PM 34.0 °F - 33.1 °F 96% 30.12 in 5.0 mi Calm Calm - 0.00 in   Overcast
7:18 PM 33.8 °F - 33.8 °F 100% 30.11 in 5.0 mi Calm Calm - N/A   Overcast
7:53 PM 34.0 °F - 33.1 °F 96% 30.14 in 3.0 mi Calm Calm - N/A   Overcast
8:00 PM 33.8 °F - 33.8 °F 100% 30.14 in 3.0 mi Calm Calm - N/A   Overcast
8:53 PM 34.0 °F - 33.1 °F 96% 30.17 in 5.0 mi Calm Calm - N/A   Overcast
9:22 PM 33.8 °F - 32.0 °F 93% 30.18 in 4.0 mi Calm Calm - N/A   Mostly Cloudy
9:31 PM 33.8 °F - 32.0 °F 93% 30.18 in 3.0 mi Calm Calm - N/A   Mostly Cloudy
9:40 PM 32.0 °F - 32.0 °F 100% 30.18 in 2.5 mi Calm Calm - N/A   Mostly Cloudy
9:50 PM 32.0 °F - 30.2 °F 93% 30.18 in 1.8 mi Calm Calm - N/A   Mostly Cloudy
9:53 PM 32.0 °F - 32.0 °F 100% 30.19 in 2.0 mi Calm Calm - N/A   Mostly Cloudy
10:01 PM 32.0 °F - 32.0 °F 100% 30.19 in 3.0 mi Calm Calm - N/A   Mostly Cloudy
10:10 PM 33.8 °F - 32.0 °F 93% 30.19 in 3.0 mi Calm Calm - N/A   Overcast
10:53 PM 33.1 °F - 33.1 °F 100% 30.22 in 4.0 mi Calm Calm - N/A   Overcast
11:53 PM 34.0 °F - 33.1 °F 96% 30.23 in 3.0 mi Calm Calm - N/A   Overcast